Погода в Лопареве

Россия / Костромская область     58°20′06″N   42°39′53″E
темп.,
°C
ветер,
м/с
пор.,
м/с
влажн.,
%
обл.,
%
осадки,
мм/ч
давл.,
гПа
погр.,
м
12 апреля, пн
пн1200:00+1юз119823 0.0 103510
03:00+2в1198100 0.0 103636
06:00+3вюв2610064 0.0 1037134
09:00+7юв369030 0.0 1038336
12:00+11ююв357831 0.0 1037692
15:00+13юв3571100 0.0 1036931
18:00+9юв4986100 0.0 1035375
21:00+6юв41393100 0.0 1035410
13 апреля, вт
вт1300:00+4юв41397100 0.0 1034422
03:00+5юв41198100 0.1 1033377
06:00+5ююв31198100 0.0 1032355
09:00+8ююв4891100 0.0 1030317
12:00+13ю4872100 0.0 1029491
15:00+15ю4970100 0.0 1027723
18:00+12ю31076100 0.0 1026341
21:00+9ю3128298 0.0 1026227
14 апреля, ср
ср1400:00+8ю3128175 0.0 1026211
03:00+6ю398391 0.0 1026150
06:00+6ю398452 0.0 1025163
09:00+12ю496485 0.0 1025314
12:00+15ю485293 0.0 1024645
15:00+16ю4747100 0.0 10221171
18:00+13ююв3962100 0.0 1021344
21:00+9ю3972100 0.0 1021170
15 апреля, чт
чт1500:00+8ююз287694 0.0 1020123
03:00+7ююз2377100 0.0 102045
06:00+6юз2279100 0.0 102021
09:00+12юз1261100 0.0 1020230
12:00+16з124756 0.0 1019791
15:00+17ссз224448 0.0 10191571
18:00+12ссв5878100 0.0 1020432
21:00+7ссв4986100 0.0 1021385
16 апреля, пт
пт1600:00+6ссв4987100 0.0 1022429
03:00+5ссв4986100 0.0 1023475
06:00+5св4985100 0.0 1024593
09:00+7св58606 0.0 1025815
12:00+10св56395 0.0 10261269
15:00+10св56385 0.0 10271546
18:00+9св47465 0.0 10281170
21:00+4ссв310620 0.0 1030305